YB3RDW-13 Weather Reports


time (UTC)temp
C
wind
direction
speed
KPH
gust
KPH
rain 1hr
cm
rain 24hr
cm
rain mn
cm
humidity
%
barometer
mb
20260508185159 27 163 0.0 0.0 0.00 0.00 0.00 87 1011.0
20260508184658 27 145 3.2 3.2 0.00 0.00 0.00 87 1011.0
20260508184158 27 126 3.2 3.2 0.00 0.00 0.00 87 1011.0
20260508183658 27 151 3.2 3.2 0.00 0.00 0.00 86 1011.0
20260508183158 27 147 3.2 3.2 0.00 0.00 0.00 86 1011.0
20260508182657 27 149 3.2 3.2 0.00 0.00 0.00 86 1011.0
20260508182158 27 156 1.6 3.2 0.00 0.00 0.00 86 1011.0
20260508181657 27 144 1.6 3.2 0.00 0.00 0.00 86 1011.0
20260508181158 27 125 4.8 4.8 0.00 0.00 0.00 86 1011.0
20260508180657 27 147 1.6 3.2 0.00 0.00 0.00 86 1011.0
20260508180158 27 146 1.6 1.6 0.00 0.00 0.00 86 1011.0
20260508175658 27 161 0.0 0.0 0.00 0.00 0.00 86 1011.0
20260508175159 27 147 0.0 0.0 0.00 0.00 0.00 86 1011.0
20260508174657 27 153 0.0 0.0 0.00 0.00 0.00 86 1011.0
20260508174159 27 141 0.0 0.0 0.00 0.00 0.00 85 1011.0
20260508173659 27 162 0.0 0.0 0.00 0.00 0.00 86 1011.0
20260508173158 27 157 0.0 1.6 0.00 0.00 0.00 85 1011.0
20260508172657 27 159 1.6 1.6 0.00 0.00 0.00 85 1012.0
20260508172158 27 154 0.0 0.0 0.00 0.00 0.00 85 1012.0
20260508171657 27 156 0.0 0.0 0.00 0.00 0.00 85 1012.0
20260508171157 27 121 3.2 3.2 0.00 0.00 0.00 84 1012.0
20260508170700 27 159 1.6 3.2 0.00 0.00 0.00 84 1012.0
20260508170201 27 224 3.2 3.2 0.00 0.00 0.00 85 1012.0
20260508165658 27 162 1.6 1.6 0.00 0.00 0.00 85 1012.0
20260508165158 27 179 1.6 1.6 0.00 0.00 0.00 86 1012.0
20260508164701 27 267 4.8 4.8 0.00 0.00 0.00 86 1012.0
20260508164159 27 174 1.6 3.2 0.00 0.00 0.00 85 1012.0
20260508163657 27 260 6.4 8.0 0.00 0.00 0.00 85 1012.0
20260508163159 27 208 3.2 3.2 0.00 0.00 0.00 86 1012.0
20260508162658 27 174 1.6 3.2 0.00 0.00 0.00 86 1012.0
20260508162200 27 173 1.6 1.6 0.00 0.00 0.00 86 1012.0
20260508161658 27 269 4.8 8.0 0.00 0.00 0.00 86 1012.0
20260508161202 28 321 9.7 11.3 0.00 0.00 0.00 86 1012.0
20260508160659 28 219 3.2 3.2 0.00 0.00 0.00 86 1012.0
20260508160158 28 240 4.8 8.0 0.00 0.00 0.00 86 1012.0
20260508155657 28 302 8.0 9.7 0.00 0.00 0.00 85 1012.0
20260508155200 28 313 6.4 9.7 0.00 0.00 0.00 85 1012.0
20260508154700 28 231 4.8 8.0 0.00 0.00 0.00 87 1012.0
20260508154158 28 172 1.6 1.6 0.00 0.00 0.00 88 1012.0
20260508153657 28 300 11.3 12.9 0.00 0.00 0.00 88 1012.0
20260508153159 28 311 8.0 11.3 0.00 0.00 0.00 89 1012.0
20260508152657 28 248 4.8 4.8 0.00 0.00 0.00 89 1012.0
20260508152201 28 113 3.2 3.2 0.00 0.00 0.00 87 1012.0
20260508151658 29 199 3.2 3.2 0.00 0.00 0.00 85 1012.0
20260508151158 28 178 1.6 1.6 0.00 0.00 0.00 85 1012.0
20260508150658 28 169 0.0 0.0 0.00 0.00 0.00 86 1012.0
20260508150158 28 208 4.8 4.8 0.00 0.00 0.00 86 1012.0
20260508145657 28 175 1.6 3.2 0.00 0.00 0.00 86 1012.0
20260508145158 28 251 4.8 4.8 0.00 0.00 0.00 85 1012.0
20260508144657 29 224 4.8 4.8 0.00 0.00 0.00 85 1012.0
20260508144157 29 200 8.0 9.7 0.00 0.00 0.00 85 1012.0
20260508143657 29 196 3.2 3.2 0.00 0.00 0.00 84 1012.0
20260508143157 29 198 3.2 3.2 0.00 0.00 0.00 84 1012.0
20260508142658 29 171 4.8 4.8 0.00 0.00 0.00 84 1012.0
20260508142157 29 301 8.0 9.7 0.00 0.00 0.00 83 1012.0
20260508141657 30 176 1.6 3.2 0.00 0.00 0.00 82 1012.0
20260508141158 30 170 0.0 1.6 0.00 0.00 0.00 82 1012.0
20260508140658 30 194 1.6 1.6 0.00 0.00 0.00 82 1012.0
20260508140157 30 262 6.4 8.0 0.00 0.00 0.00 82 1012.0
20260508135657 30 162 3.2 3.2 0.00 0.00 0.00 82 1012.0
20260508135157 30 264 6.4 8.0 0.00 0.00 0.00 81 1012.0
20260508134657 30 291 8.0 11.3 0.00 0.00 0.00 81 1012.0
20260508134159 30 212 3.2 3.2 0.00 0.00 0.00 81 1012.0
20260508133658 30 203 1.6 3.2 0.00 0.00 0.00 80 1012.0
20260508133157 30 262 11.3 14.5 0.00 0.00 0.00 80 1012.0
20260508132657 30 232 4.8 4.8 0.00 0.00 0.00 80 1012.0
20260508132158 30 280 6.4 8.0 0.00 0.00 0.00 79 1012.0
20260508131657 30 293 6.4 9.7 0.00 0.00 0.00 79 1011.0
20260508131158 30 277 8.0 11.3 0.00 0.00 0.00 79 1012.0
20260508130658 30 322 11.3 12.9 0.00 0.00 0.00 79 1012.0
20260508130157 30 318 6.4 9.7 0.00 0.00 0.00 79 1012.0
20260508125658 30 280 8.0 9.7 0.00 0.00 0.00 79 1012.0
20260508125157 30 275 4.8 4.8 0.00 0.00 0.00 79 1011.0
20260508124657 30 303 11.3 12.9 0.00 0.00 0.00 78 1011.0
20260508124157 30 305 8.0 11.3 0.00 0.00 0.00 79 1011.0
20260508123657 30 272 6.4 8.0 0.00 0.00 0.00 79 1011.0
20260508123157 30 310 11.3 14.5 0.00 0.00 0.00 79 1011.0
20260508122700 30 99 8.0 9.7 0.00 0.00 0.00 78 1011.0
20260508122157 30 292 4.8 4.8 0.00 0.00 0.00 78 1011.0
20260508121658 30 296 6.4 8.0 0.00 0.00 0.00 78 1011.0
20260508121157 30 233 4.8 4.8 0.00 0.00 0.00 78 1011.0
20260508120658 30 246 4.8 4.8 0.00 0.00 0.00 78 1011.0
20260508120158 30 327 9.7 11.3 0.00 0.00 0.00 77 1011.0
20260508115657 30 184 6.4 8.0 0.00 0.00 0.00 77 1010.0
20260508115157 30 217 6.4 8.0 0.00 0.00 0.00 76 1011.0
20260508114657 30 309 8.0 11.3 0.00 0.00 0.00 76 1010.0
20260508114157 30 310 11.3 14.5 0.00 0.00 0.00 76 1010.0
20260508113657 30 230 8.0 11.3 0.00 0.00 0.00 76 1010.0
20260508113157 30 275 6.4 9.7 0.00 0.00 0.00 75 1010.0
20260508112657 30 264 6.4 9.7 0.00 0.00 0.00 74 1010.0
20260508112157 30 289 4.8 8.0 0.00 0.00 0.00 74 1010.0
20260508111658 30 229 1.6 3.2 0.00 0.00 0.00 74 1010.0
20260508111158 30 225 4.8 4.8 0.00 0.00 0.00 74 1010.0
20260508110657 30 301 8.0 9.7 0.00 0.00 0.00 74 1010.0
20260508110157 30 319 9.7 12.9 0.00 0.00 0.00 74 1010.0
20260508105659 30 289 6.4 8.0 0.00 0.00 0.00 74 1010.0
20260508105157 30 274 4.8 8.0 0.00 0.00 0.00 74 1009.0
20260508104657 30 276 6.4 11.3 0.00 0.00 0.00 73 1009.0
20260508104158 30 124 4.8 8.0 0.00 0.00 0.00 72 1009.0
20260508103657 30 236 3.2 3.2 0.00 0.00 0.00 72 1009.0
20260508103157 30 266 6.4 8.0 0.00 0.00 0.00 72 1009.0
20260508102659 30 231 3.2 3.2 0.00 0.00 0.00 73 1009.0
20260508102159 30 259 9.7 11.3 0.00 0.00 0.00 73 1009.0
20260508101657 30 142 3.2 3.2 0.00 0.00 0.00 73 1009.0
20260508101159 30 305 4.8 8.0 0.00 0.00 0.00 73 1009.0
20260508100659 30 289 6.4 8.0 0.00 0.00 0.00 73 1009.0
20260508100157 31 287 6.4 8.0 0.00 0.00 0.00 72 1009.0
20260508095657 31 262 4.8 4.8 0.00 0.00 0.00 72 1009.0
20260508095206 31 280 6.4 9.7 0.00 0.00 0.00 71 1009.0
20260508094657 31 302 8.0 11.3 0.00 0.00 0.00 71 1009.0
20260508094157 31 252 8.0 9.7 0.00 0.00 0.00 70 1009.0
20260508093657 31 121 3.2 3.2 0.00 0.00 0.00 70 1009.0
20260508093158 31 258 9.7 11.3 0.00 0.00 0.00 69 1009.0
20260508092658 31 278 9.7 11.3 0.00 0.00 0.00 69 1009.0
20260508092158 31 311 11.3 14.5 0.00 0.00 0.00 68 1009.0
20260508091657 31 276 6.4 8.0 0.00 0.00 0.00 68 1009.0
20260508091157 31 303 8.0 8.0 0.00 0.00 0.00 68 1009.0
20260508090657 31 347 14.5 14.5 0.00 0.00 0.00 67 1009.0
20260508090158 31 295 12.9 14.5 0.00 0.00 0.00 67 1009.0
20260508085658 31 284 12.9 16.1 0.00 0.00 0.00 68 1009.0
20260508085157 31 256 6.4 8.0 0.00 0.00 0.00 69 1008.0
20260508084658 31 262 8.0 9.7 0.00 0.00 0.00 69 1009.0
20260508084157 31 293 8.0 9.7 0.00 0.00 0.00 70 1008.0
20260508083657 31 283 14.5 16.1 0.00 0.00 0.00 69 1008.0
20260508083157 31 297 6.4 9.7 0.00 0.00 0.00 68 1008.0
20260508082657 31 315 14.5 17.7 0.00 0.00 0.00 69 1008.0
20260508082157 32 324 11.3 16.1 0.00 0.00 0.00 69 1008.0
20260508081657 32 273 9.7 12.9 0.00 0.00 0.00 68 1008.0
20260508081157 31 251 9.7 12.9 0.00 0.00 0.00 70 1009.0
20260508080658 32 335 9.7 11.3 0.00 0.00 0.00 69 1008.0
20260508080157 32 256 9.7 11.3 0.00 0.00 0.00 69 1008.0
20260508075657 32 259 12.9 16.1 0.00 0.00 0.00 68 1008.0
20260508075157 32 252 9.7 12.9 0.00 0.00 0.00 66 1008.0
20260508074657 32 294 14.5 17.7 0.00 0.00 0.00 65 1008.0
20260508074158 32 308 16.1 22.5 0.00 0.00 0.00 64 1008.0
20260508073658 32 327 12.9 16.1 0.00 0.00 0.00 66 1008.0
20260508073157 32 270 11.3 14.5 0.00 0.00 0.00 63 1008.0
20260508072658 32 201 14.5 16.1 0.00 0.00 0.00 63 1008.0
20260508072158 32 184 11.3 14.5 0.00 0.00 0.00 62 1008.0
20260508071657 32 313 8.0 9.7 0.00 0.00 0.00 62 1008.0
20260508071157 32 279 12.9 14.5 0.00 0.00 0.00 62 1008.0
20260508070657 33 279 12.9 14.5 0.00 0.00 0.00 61 1008.0
20260508070157 33 315 9.7 12.9 0.00 0.00 0.00 62 1008.0
20260508065657 32 299 14.5 17.7 0.00 0.00 0.00 62 1008.0
20260508065158 33 280 17.7 29.0 0.00 0.00 0.00 61 1008.0
20260508064657 33 287 8.0 9.7 0.00 0.00 0.00 60 1008.0
20260508064158 33 249 16.1 20.9 0.00 0.00 0.00 59 1008.0
20260508063658 33 307 11.3 14.5 0.00 0.00 0.00 60 1009.0
20260508063157 33 128 16.1 20.9 0.00 0.00 0.00 59 1009.0
20260508062657 33 290 8.0 11.3 0.00 0.00 0.00 59 1009.0
20260508062157 33 278 14.5 16.1 0.00 0.00 0.00 57 1008.0
20260508061657 33 307 14.5 16.1 0.00 0.00 0.00 57 1009.0
20260508061157 32 291 16.1 17.7 0.00 0.00 0.00 58 1009.0
20260508060658 32 241 14.5 24.1 0.00 0.00 0.00 60 1009.0
20260508060158 33 280 14.5 16.1 0.00 0.00 0.00 58 1009.0
20260508055658 33 275 11.3 14.5 0.00 0.00 0.00 58 1009.0
20260508055157 33 300 14.5 16.1 0.00 0.00 0.00 56 1009.0
20260508054657 33 92 8.0 9.7 0.00 0.00 0.00 59 1009.0
20260508054158 33 329 17.7 25.7 0.00 0.00 0.00 58 1009.0
20260508053657 33 304 11.3 14.5 0.00 0.00 0.00 59 1009.0
20260508053158 33 335 12.9 14.5 0.00 0.00 0.00 59 1009.0
20260508052658 33 300 12.9 12.9 0.00 0.00 0.00 58 1009.0
20260508052157 33 269 16.1 17.7 0.00 0.00 0.00 57 1009.0
20260508051657 33 281 14.5 16.1 0.00 0.00 0.00 59 1009.0
20260508051157 33 220 8.0 9.7 0.00 0.00 0.00 59 1009.0
20260508050657 33 264 14.5 16.1 0.00 0.00 0.00 58 1009.0
20260508050157 33 267 9.7 12.9 0.00 0.00 0.00 59 1009.0
20260508045658 32 11 14.5 14.5 0.00 0.00 0.00 60 1009.0
20260508045158 33 345 14.5 17.7 0.00 0.00 0.00 59 1010.0
20260508044657 32 328 14.5 17.7 0.00 0.00 0.00 60 1010.0
20260508044157 32 295 14.5 20.9 0.00 0.00 0.00 59 1010.0
20260508043657 32 1 14.5 16.1 0.00 0.00 0.00 59 1010.0
20260508043157 33 314 12.9 14.5 0.00 0.00 0.00 59 1010.0
20260508042657 33 293 9.7 11.3 0.00 0.00 0.00 58 1010.0
20260508042157 33 290 14.5 16.1 0.00 0.00 0.00 58 1010.0
20260508041701 33 291 12.9 16.1 0.00 0.00 0.00 57 1010.0
20260508041157 32 342 8.0 9.7 0.00 0.00 0.00 59 1010.0
20260508040657 32 332 11.3 14.5 0.00 0.00 0.00 58 1010.0
20260508040157 32 313 12.9 16.1 0.00 0.00 0.00 58 1010.0
20260508035700 32 337 11.3 12.9 0.00 0.00 0.00 58 1010.0
20260508035158 33 331 14.5 20.9 0.00 0.00 0.00 58 1010.0
20260508034657 33 357 14.5 16.1 0.00 0.00 0.00 57 1010.0
20260508034158 33 347 14.5 16.1 0.00 0.00 0.00 56 1011.0
20260508033657 33 266 8.0 9.7 0.00 0.00 0.00 56 1010.0
20260508033157 32 325 17.7 22.5 0.00 0.00 0.00 57 1011.0
20260508032657 33 329 12.9 14.5 0.00 0.00 0.00 56 1011.0
20260508032158 32 293 8.0 9.7 0.00 0.00 0.00 58 1011.0
20260508031657 32 0 9.7 11.3 0.00 0.00 0.00 58 1011.0
20260508031158 32 184 3.2 3.2 0.00 0.00 0.00 58 1011.0
20260508030658 32 248 8.0 11.3 0.00 0.00 0.00 58 1011.0
20260508030157 32 334 16.1 20.9 0.00 0.00 0.00 59 1011.0
20260508025657 32 93 6.4 9.7 0.00 0.00 0.00 62 1011.0
20260508025157 32 237 8.0 11.3 0.00 0.00 0.00 65 1011.0
20260508024657 32 175 4.8 8.0 0.00 0.00 0.00 65 1012.0
20260508024157 32 161 4.8 8.0 0.00 0.00 0.00 66 1012.0
20260508023657 31 175 4.8 4.8 0.00 0.00 0.00 70 1012.0
20260508023158 32 181 8.0 9.7 0.00 0.00 0.00 70 1012.0
20260508022657 31 161 0.0 0.0 0.00 0.00 0.00 70 1012.0
20260508022157 31 203 6.4 8.0 0.00 0.00 0.00 70 1012.0
20260508021657 31 187 4.8 8.0 0.00 0.00 0.00 71 1012.0
20260508021157 31 188 6.4 8.0 0.00 0.00 0.00 72 1012.0
20260508020657 31 234 4.8 4.8 0.00 0.00 0.00 71 1012.0
20260508020158 31 167 3.2 3.2 0.00 0.00 0.00 73 1012.0
20260508015658 31 170 4.8 4.8 0.00 0.00 0.00 73 1012.0
20260508015157 30 171 0.0 0.0 0.00 0.00 0.00 75 1012.0
20260508014658 30 205 4.8 4.8 0.00 0.00 0.00 75 1012.0
20260508014157 30 194 4.8 8.0 0.00 0.00 0.00 76 1012.0
20260508013658 30 188 4.8 4.8 0.00 0.00 0.00 76 1012.0
20260508013157 30 176 0.0 1.6 0.00 0.00 0.00 78 1012.0
20260508012657 30 147 3.2 4.8 0.00 0.00 0.00 78 1012.0
20260508012157 30 160 3.2 3.2 0.00 0.00 0.00 78 1012.0
20260508011659 30 157 0.0 1.6 0.00 0.00 0.00 77 1012.0
20260508011159 29 172 3.2 3.2 0.00 0.00 0.00 79 1012.0
20260508010657 29 164 4.8 4.8 0.00 0.00 0.00 79 1012.0
20260508010157 28 159 1.6 3.2 0.00 0.00 0.00 81 1012.0
20260508005658 28 146 3.2 3.2 0.00 0.00 0.00 81 1012.0
20260508005158 28 171 1.6 1.6 0.00 0.00 0.00 81 1012.0
20260508004657 28 178 1.6 3.2 0.00 0.00 0.00 82 1012.0
20260508004158 28 186 1.6 1.6 0.00 0.00 0.00 82 1012.0
20260508003657 27 176 0.0 0.0 0.00 0.00 0.00 84 1012.0
20260508003157 27 162 1.6 3.2 0.00 0.00 0.00 84 1012.0
20260508002657 27 117 1.6 1.6 0.00 0.00 0.00 85 1012.0
20260508002157 27 168 3.2 3.2 0.00 0.00 0.00 85 1012.0
20260508001657 27 146 3.2 3.2 0.00 0.00 0.00 86 1012.0
20260508001157 27 121 4.8 4.8 0.00 0.00 0.00 86 1012.0
20260508000657 27 141 4.8 4.8 0.00 0.00 0.00 86 1012.0
20260508000157 27 166 0.0 0.0 0.00 0.00 0.00 86 1012.0
20260507235659 27 161 1.6 1.6 0.00 0.00 0.00 87 1011.0
20260507235157 26 148 1.6 3.2 0.00 0.00 0.00 87 1012.0
20260507234657 26 167 0.0 0.0 0.00 0.00 0.00 87 1012.0
20260507234157 26 163 0.0 0.0 0.00 0.00 0.00 88 1012.0
20260507233658 26 162 0.0 0.0 0.00 0.00 0.00 89 1011.0
20260507233157 26 148 1.6 1.6 0.00 0.00 0.00 89 1011.0
20260507232657 26 149 0.0 0.0 0.00 0.00 0.00 90 1011.0
20260507232157 26 158 0.0 0.0 0.00 0.00 0.00 91 1011.0
20260507231657 25 158 1.6 3.2 0.00 0.00 0.00 91 1011.0
20260507231157 25 157 1.6 1.6 0.00 0.00 0.00 92 1011.0
20260507230657 25 145 3.2 4.8 0.00 0.00 0.00 92 1011.0
20260507230158 25 136 4.8 4.8 0.00 0.00 0.00 92 1011.0
20260507225657 25 144 1.6 3.2 0.00 0.00 0.00 93 1011.0
20260507225158 25 160 3.2 3.2 0.00 0.00 0.00 93 1011.0
20260507224657 25 113 3.2 3.2 0.00 0.00 0.00 93 1011.0
20260507224157 25 126 4.8 4.8 0.00 0.00 0.00 93 1011.0
20260507223657 25 125 4.8 4.8 0.00 0.00 0.00 93 1011.0
20260507223157 25 148 1.6 1.6 0.00 0.00 0.00 93 1011.0
20260507222658 25 128 3.2 3.2 0.00 0.00 0.00 93 1011.0
20260507222158 25 125 4.8 4.8 0.00 0.00 0.00 94 1011.0
20260507221658 25 147 1.6 3.2 0.00 0.00 0.00 94 1011.0
20260507221157 25 152 1.6 1.6 0.00 0.00 0.00 94 1011.0
20260507220657 25 145 1.6 1.6 0.00 0.00 0.00 94 1010.0
20260507220157 25 155 0.0 0.0 0.00 0.00 0.00 94 1010.0
20260507215657 25 157 0.0 0.0 0.00 0.00 0.00 94 1010.0
20260507215157 25 129 3.2 3.2 0.00 0.00 0.00 94 1010.0
20260507214657 25 102 3.2 3.2 0.00 0.00 0.00 94 1010.0
20260507214158 25 137 1.6 3.2 0.00 0.00 0.00 94 1010.0
20260507213657 25 127 1.6 1.6 0.00 0.00 0.00 94 1010.0
20260507213159 25 132 3.2 3.2 0.00 0.00 0.00 95 1010.0
20260507212657 25 130 1.6 1.6 0.00 0.00 0.00 94 1010.0
20260507212157 25 141 3.2 3.2 0.00 0.00 0.00 94 1010.0
20260507211657 25 147 0.0 0.0 0.00 0.00 0.00 94 1010.0
20260507211157 25 120 4.8 4.8 0.00 0.00 0.00 94 1010.0
20260507210657 25 140 1.6 1.6 0.00 0.00 0.00 94 1010.0
20260507210157 26 156 0.0 1.6 0.00 0.00 0.00 94 1010.0
20260507205657 26 157 0.0 0.0 0.00 0.00 0.00 94 1010.0
20260507205157 26 138 0.0 0.0 0.00 0.00 0.00 94 1010.0
20260507204657 26 157 0.0 0.0 0.00 0.00 0.00 94 1010.0
20260507204157 26 158 0.0 1.6 0.00 0.00 0.00 94 1010.0
20260507203657 26 149 3.2 3.2 0.00 0.00 0.00 94 1010.0
20260507203158 26 129 4.8 4.8 0.00 0.00 0.00 94 1010.0
20260507202657 26 149 3.2 3.2 0.00 0.00 0.00 93 1010.0
20260507202157 26 123 1.6 3.2 0.00 0.00 0.00 94 1010.0
20260507201657 26 142 1.6 1.6 0.00 0.00 0.00 94 1010.0
20260507201157 26 150 1.6 3.2 0.00 0.00 0.00 94 1010.0
20260507200657 26 153 1.6 1.6 0.00 0.00 0.00 94 1010.0
20260507200158 26 145 0.0 0.0 0.00 0.00 0.00 94 1010.0
20260507195657 26 156 1.6 1.6 0.00 0.00 0.00 94 1010.0
20260507195158 26 136 3.2 3.2 0.00 0.00 0.00 93 1010.0
20260507194657 26 146 0.0 1.6 0.00 0.00 0.00 93 1010.0
20260507194157 26 157 1.6 3.2 0.00 0.00 0.00 93 1010.0
20260507193659 26 142 3.2 3.2 0.00 0.00 0.00 93 1010.0
20260507193158 26 152 1.6 3.2 0.00 0.00 0.00 93 1010.0
20260507192657 26 152 3.2 3.2 0.00 0.00 0.00 93 1011.0
20260507192157 26 155 0.0 0.0 0.00 0.00 0.00 93 1010.0
20260507191657 26 124 1.6 3.2 0.00 0.00 0.00 93 1010.0
20260507191157 26 140 3.2 3.2 0.00 0.00 0.00 93 1010.0
20260507190658 26 150 3.2 3.2 0.00 0.00 0.00 93 1011.0
20260507190158 26 119 4.8 4.8 0.00 0.00 0.00 93 1011.0
20260507185657 26 133 3.2 3.2 0.00 0.00 0.00 93 1011.0